カタログに戻る

SECOR 13

EGRS 13

運用中軍事SSO
NORAD 3891·PAYLOAD·🇺🇸 United States

打ち上げ Apr 14, 1969 から Vandenberg Space Force Base

Loading…

次のパス (今後24時間)

TLE

最新Source: Space-Track

元期: Sep 14, 2026, 03:25 UTC

1 03891U 69037B   26257.14243282 -.00000027  00000-0  26582-4 0  9991
2 03891  99.6323 124.7114 0040009  33.7957 130.8402 13.42979983813692

AllMySatでSECOR 13をリアルタイム追跡

Download on the App Store